Regional Weather Roundup
Issued by NWS Charleston, SC

Current Version | Previous Version | Text Only | Print | Product List | Glossary On
Versions: 1 2 3 4 5 6 7 8 9 10 11 12 13 14 15 16 17 18 19 20 21 22 23 24 25 26 27 28 29 30 31 32 33 34 35 36 37 38 39 40 41 42 43 44 45 46 47 48 49 50
000
ASUS42 KCHS 011026
RWRCHS
REGIONAL WEATHER ROUNDUP
NATIONAL WEATHER SERVICE CHARLESTON SC
500 AM EST SUN MAR 01 2015

NOTE: "FAIR" INDICATES FEW OR NO CLOUDS BELOW 12,000 FEET WITH NO
SIGNIFICANT WEATHER AND/OR OBSTRUCTIONS TO VISIBILITY.

NOT ALL STATIONS ARE QUALITY CONTROLLED BY THE NATIONAL
WEATHER SERVICE. USE DATA WITH CAUTION...ESPECIALLY
DEWPOINT OBSERVATIONS.

SCZ027-030-031-034>040-042>050-011100-
...SOUTHEAST SOUTH CAROLINA...

CITY           SKY/WX    TMP DP  RH WIND       PRES   REMARKS
N CHARLESTON   LGT RAIN  40  36  86 NE8       30.48F WCI  34
WATERFRONT PRK   N/A     41 N/A N/A N14         N/A
MOUNT PLEASANT LGT RAIN  39  37  93 N6        30.48R WCI  35
PINOPOLIS        N/A     39  34  81 NE13      30.42S WCI  32
MONCKS CORNER  CLOUDY    39  34  81 NE6       30.50S WCI  35
SUMMERVILLE    CLOUDY    37  37 100 N5        30.50S WCI  34
BEAUFORT MCAS  CLOUDY    41  38  89 NE10      30.47S
BEAUFORT ARPT  DRIZZLE   43  39  87 NE13      30.47R
HILTON HEAD IS NOT AVBL
WALTERBORO     CLOUDY    39  37  93 N7        30.50R WCI  34
ALLENDALE      LGT RAIN  39  37  93 N7        30.50R WCI  34

...SOUTHERN MIDLANDS AND PEE DEE...

CITY           SKY/WX    TMP DP  RH WIND       PRES   REMARKS
GEORGETOWN     NOT AVBL
KINGSTREE      NOT AVBL
ORANGEBURG     RAIN      36  31  82 NE9       30.51S WCI  29
BARNWELL       CLOUDY    37  36  93 N7        30.52R WCI  32
AIKEN          RAIN      34  34 100 N8        30.55R WCI  27
MANNING        LGT RAIN  36  36 100 NE6       30.51F WCI  31
COLUMBIA       HVY RAIN  35  32  88 N6        30.54S FOG     WCI  30
SUMTER         LGT RAIN  34  32  93 N9        30.52S WCI  26
FLORENCE       CLOUDY    36  30  79 NE7       30.54S WCI  30
MYRTLE BEACH   CLOUDY    41  28  60 N10       30.54F
N MYRTLE BEACH CLOUDY    39  30  70 N9        30.52S WCI  33

$$

GAZ063-065-086>088-099>101-113>116-118-119-134>141-150-011100-
...SOUTHEAST GEORGIA...

CITY           SKY/WX    TMP DP  RH WIND       PRES   REMARKS
SAVANNAH ARPT  CLOUDY    42  38  85 N6        30.47R
HUNTER AAF     DRIZZLE   43  41  93 NE3       30.45
FORT STEWART   CLOUDY    43  41  93 N6        30.45R
STATESBORO     DRIZZLE   40  40 100 NE6       30.49S WCI  35
SYLVANIA       DRIZZLE   39  39 100 NE5       30.50S WCI  36
CLAXTON        DRIZZLE   41  41 100 N5        30.49R

...CSRA...CENTRAL AND FAR SOUTHEAST GEORGIA...

CITY           SKY/WX    TMP DP  RH WIND       PRES   REMARKS
THOMSON        CLOUDY    37  37 100 NE6       30.56R WCI  33
AUGUSTA-BUSH   LGT RAIN  37  35  92 NE7       30.53S FOG     WCI  32
AUGUSTA-DANIEL LGT RAIN  38  35  89 N8        30.51F FOG     WCI  32
SWAINSBORO     CLOUDY    41  41 100 NE7       30.50S FOG
VIDALIA        CLOUDY    41  41 100 NE8       30.48S FOG
EASTMAN        CLOUDY    41  41 100 NE8       30.50S FOG
HAZLEHURST     CLOUDY    44  44 100 NE6       30.46R FOG
ALMA           CLOUDY    43  41  93 VRB7      30.44S FOG
WAYCROSS       CLOUDY    47  46  96 NE6       30.44R
JESUP          CLOUDY    46  45  93 NE7       30.45R
BAXLEY         CLOUDY    45  43  93 NE9       30.45S FOG
BRUNSWICK      CLOUDY    46  45  93 NE8       30.44R
SAINT SIMONS   CLOUDY    47  45  93 NE18G25   30.42S

$$

SCZ027-028-034-036>038-045-046-048>050-GAZ119-141-011100-
...LAKE AND SUPPLEMENTAL COASTAL OBSERVATIONS...

STATION/POSITION TIME  TEMP    WIND        PRES    WAVE   SWELL
                       AIR SEA DIR/SP/G            HT/PER HT/PER/DIR
                 (UTC) (F)     (DEG/KT/KT) (MB)    (FT/S) (FT/S/D)
UPR LAKE MARION  NOT AVBL
WINYAH BAY       0945   38      20/  6     1031.0F
LAKE MURRAY      1000   33     330/  3/  6 1033.9R
ACE BASIN NERRS  NOT AVBL
FORT PULASKI     1000   44 48   10/ 10/ 12 1031.8R
SAPELO ISLAND    1000   45      20/ 12     1030.0S

$$

ANZ835-935-AMZ111-154-330-350-352-354-370-450-454-472-011100-
...C-MAN AND BUOY OBSERVATIONS...

STATION/POSITION TIME  TEMP    WIND        PRES    WAVE   SWELL
                       AIR SEA DIR/SP/G            HT/PER HT/PER/DIR
                 (UTC) (F)     (DEG/KT/KT) (MB)    (FT/S) (FT/S/D)
BUOY 41004       0950   58 66   30/ 19/ 25 1029.5F  10/ 9
BUOY 41008       0950   51 53   30/ 19/ 23 1029.1R   8/ 8
FOLLY BEACH CMAN 1000   41      20/ 14/ 17 1032.0F
CAPERS NEARSHORE NOT AVBL
FRIPP NEARSHORE  0900   45      50/ 17/ 23 1029.6F


STATION/POSITION TIME  TEMP    WIND        PRES    WAVE   SWELL
                       AIR SEA DIR/SP/G            HT/PER HT/PER/DIR
                 (UTC) (F)     (DEG/KT/KT) (MB)    (FT/S) (FT/S/D)
5E ST. MARYS GA  0921      52                N/A     7/ 7   2/ 80/11
FRYING PAN BUOY  0950   63 61  110/ 14/ 16 1032.4S   7/ 7   5/ 70/ 7
BUOY 41025       NOT AVBL
CAPE LOOKOUT NC  1000   38      20/ 11/ 14 1034.2F
BUOY 41002       0950   67 71   90/ 21/ 25 1031.8F  10/ 9
BUOY 41010       0920   71 74   90/ 21/ 25 1026.9F
ST AUGUSTINE FL  1000   53     360/ 17/ 19 1028.8R


$$



USA.gov is the U.S. government's official web portal to all federal, state and local government web resources and services.